EW8295 Weather Reports


time (UTC)temp
F
wind
direction
speed
knots
gust
knots
rain 1hr
in
rain 24hr
in
rain mn
in
humidity
%
barometer
mb
20260504194854 71 215 0.9 5.2 0.00 0.00 0.00 40 1009.2
20260504194317 71 238 2.6 5.2 0.00 0.00 0.00 41 1009.3
20260504193826 71 217 1.7 7.0 0.00 0.00 0.00 41 1009.2
20260504193331 71 217 0.9 7.0 0.00 0.00 0.00 41 1009.2
20260504192834 71 247 2.6 6.1 0.00 0.00 0.00 39 1009.2
20260504192320 72 207 2.6 5.2 0.00 0.00 0.00 39 1009.2
20260504191827 72 210 0.9 5.2 0.00 0.00 0.00 38 1009.3
20260504191351 72 177 0.9 6.1 0.00 0.00 0.00 39 1009.5
20260504190832 72 219 1.7 6.1 0.00 0.00 0.00 38 1009.4
20260504190316 73 229 2.6 6.1 0.00 0.00 0.00 37 1009.4
20260504185824 73 265 1.7 6.1 0.00 0.00 0.00 35 1009.4
20260504185326 73 233 1.7 5.2 0.00 0.00 0.00 38 1009.3
20260504184827 73 211 3.5 7.8 0.00 0.00 0.00 37 1009.5
20260504184355 73 219 2.6 7.8 0.00 0.00 0.00 36 1009.5
20260504183835 73 232 2.6 6.1 0.00 0.00 0.00 38 1009.5
20260504183318 72 232 2.6 6.1 0.00 0.00 0.00 36 1009.6
20260504182820 72 222 0.9 6.1 0.00 0.00 0.00 38 1009.7
20260504182325 72 216 3.5 6.1 0.00 0.00 0.00 38 1009.8
20260504181815 72 190 2.6 6.1 0.00 0.00 0.00 38 1009.8
20260504181322 72 220 3.5 7.0 0.00 0.00 0.00 39 1010.0
20260504180827 71 209 2.6 7.0 0.00 0.00 0.00 36 1009.9
20260504180330 71 250 3.5 6.1 0.00 0.00 0.00 36 1010.0
20260504175835 71 226 1.7 8.7 0.00 0.00 0.00 39 1010.0
20260504175317 72 227 4.3 8.7 0.00 0.00 0.00 36 1010.3
20260504174825 72 233 0.9 5.2 0.00 0.00 0.00 40 1010.2
20260504174328 71 205 2.6 8.7 0.00 0.00 0.00 39 1010.2
20260504173832 70 192 2.6 8.7 0.00 0.00 0.00 38 1010.2
20260504173319 70 182 2.6 7.8 0.00 0.00 0.00 41 1010.3
20260504172821 70 209 0.9 6.1 0.00 0.00 0.00 37 1010.4
20260504172328 70 237 3.5 6.1 0.00 0.00 0.00 38 1010.5
20260504171833 70 234 2.6 7.8 0.00 0.00 0.00 37 1010.4
20260504171337 70 209 0.9 8.7 0.00 0.00 0.00 42 1010.5
20260504170841 70 196 3.5 8.7 0.00 0.00 0.00 38 1010.7
20260504170324 70 248 1.7 7.0 0.00 0.00 0.00 38 1010.6
20260504160324 68 194 3.5 7.8 0.00 0.00 0.00 40 1011.1
20260504150837 68 192 2.6 7.8 0.00 0.00 0.00 41 1011.7
20260504150319 67 186 2.6 7.8 0.00 0.00 0.00 43 1011.6
20260504141323 63 224 3.5 5.2 0.00 0.00 0.00 47 1012.3
20260504140825 62 232 1.7 5.2 0.00 0.00 0.00 48 1012.3
20260504140356 62 250 2.6 6.1 0.00 0.00 0.00 47 1012.4
20260504130325 57 178 0.9 5.2 0.00 0.00 0.00 54 1013.1
20260504110321 49 205 0.0 0.0 0.00 0.00 0.00 63 1013.1
20260504100330 47 207 0.0 0.9 0.00 0.00 0.00 62 1012.7
20260504081824 49 209 0.0 2.6 0.00 0.00 0.00 58 1012.0
20260504081328 49 209 0.0 2.6 0.00 0.00 0.00 57 1012.0
20260504080837 49 213 0.0 0.9 0.00 0.00 0.00 57 1012.0
20260504080322 49 213 0.0 1.7 0.00 0.00 0.00 58 1012.1
20260504070320 47 214 0.0 0.0 0.00 0.00 0.00 67 1012.2
20260504050320 44 214 0.0 0.0 0.00 0.00 0.00 63 1012.3
20260504045822 44 214 0.0 0.0 0.00 0.00 0.00 64 1012.3
20260504045324 44 214 0.0 0.0 0.00 0.00 0.00 64 1012.3
20260504044828 44 214 0.0 0.0 0.00 0.00 0.00 65 1012.2
20260504044337 44 214 0.0 0.0 0.00 0.00 0.00 63 1012.3
20260504043821 44 214 0.0 0.0 0.00 0.00 0.00 63 1012.4
20260504043343 44 214 0.0 0.0 0.00 0.00 0.00 62 1012.4
20260504042824 44 214 0.0 0.0 0.00 0.00 0.00 62 1012.4
20260504042326 44 214 0.0 0.0 0.00 0.00 0.00 63 1012.4
20260504041827 44 214 0.0 0.0 0.00 0.00 0.00 62 1012.4
20260504041353 44 214 0.0 0.0 0.00 0.00 0.00 64 1012.4
20260504040837 44 214 0.0 0.0 0.00 0.00 0.00 64 1012.3
20260504040323 45 214 0.0 0.0 0.00 0.00 0.00 63 1012.3
20260504035847 45 214 0.0 0.0 0.00 0.00 0.00 61 1012.2
20260504035331 45 214 0.0 0.0 0.00 0.00 0.00 61 1012.1
20260504034835 45 214 0.0 0.0 0.00 0.00 0.00 61 1012.1
20260504034320 45 214 0.0 0.0 0.00 0.00 0.00 61 1012.1
20260504033824 45 214 0.0 0.0 0.00 0.00 0.00 62 1012.0
20260504033326 45 214 0.0 0.0 0.00 0.00 0.00 61 1012.0
20260504032831 45 214 0.0 0.0 0.00 0.00 0.00 60 1012.0
20260504032316 45 214 0.0 0.0 0.00 0.00 0.00 61 1012.0
20260504031824 45 214 0.0 0.0 0.00 0.00 0.00 61 1012.0
20260504031326 45 214 0.0 0.0 0.00 0.00 0.00 62 1012.1
20260504030829 45 214 0.0 0.0 0.00 0.00 0.00 62 1012.1
20260504030319 45 214 0.0 0.0 0.00 0.00 0.00 63 1012.0
20260504025821 45 214 0.0 0.0 0.00 0.00 0.00 62 1012.0
20260504025323 45 214 0.0 0.0 0.00 0.00 0.00 61 1012.0
20260504024845 45 214 0.0 0.0 0.00 0.00 0.00 61 1011.9
20260504024346 45 214 0.0 0.0 0.00 0.00 0.00 61 1011.9
20260504023828 45 214 0.0 0.0 0.00 0.00 0.00 60 1011.9
20260504023317 45 214 0.0 0.0 0.00 0.00 0.00 60 1011.9
20260504022848 45 214 0.0 0.0 0.00 0.00 0.00 61 1011.9
20260504022330 46 214 0.0 0.0 0.00 0.00 0.00 61 1011.9
20260504021816 46 214 0.0 0.0 0.00 0.00 0.00 61 1011.8
20260504021345 46 214 0.0 0.0 0.00 0.00 0.00 60 1011.8
20260504020833 46 214 0.0 0.0 0.00 0.00 0.00 60 1011.8
20260504020320 46 214 0.0 0.0 0.00 0.00 0.00 60 1011.8
20260504015825 46 214 0.0 0.0 0.00 0.00 0.00 59 1011.8
20260504015330 46 214 0.0 0.0 0.00 0.00 0.00 58 1011.7
20260504014837 46 214 0.0 0.0 0.00 0.00 0.00 58 1011.7
20260504014340 46 214 0.0 0.0 0.00 0.00 0.00 58 1011.7
20260504013822 46 214 0.0 0.0 0.00 0.00 0.00 59 1011.7
20260504013326 46 214 0.0 0.0 0.00 0.00 0.00 59 1011.6
20260504012828 46 214 0.0 0.0 0.00 0.00 0.00 60 1011.6
20260504012330 46 214 0.0 0.0 0.00 0.00 0.00 59 1011.5
20260504011815 46 214 0.0 0.0 0.00 0.00 0.00 59 1011.4
20260504011324 47 214 0.0 0.0 0.00 0.00 0.00 59 1011.4
20260504010827 47 214 0.0 0.0 0.00 0.00 0.00 58 1011.3
20260504010318 47 214 0.0 0.0 0.00 0.00 0.00 57 1011.2
20260504005823 47 214 0.0 0.0 0.00 0.00 0.00 57 1011.1
20260504005329 47 214 0.0 0.0 0.00 0.00 0.00 57 1011.0
20260504004851 48 214 0.0 0.0 0.00 0.00 0.00 57 1011.0
20260504004335 48 214 0.0 0.0 0.00 0.00 0.00 56 1010.9
20260504003819 48 214 0.0 0.0 0.00 0.00 0.00 55 1010.8
20260504003323 49 214 0.0 0.0 0.00 0.00 0.00 54 1010.7
20260504002825 49 214 0.0 0.0 0.00 0.00 0.00 53 1010.7
20260504002328 50 214 0.0 0.0 0.00 0.00 0.00 54 1010.6
20260504001830 50 214 0.0 0.0 0.00 0.00 0.00 53 1010.5
20260504001335 51 214 0.0 0.0 0.00 0.00 0.00 52 1010.4
20260504000840 51 214 0.0 0.0 0.00 0.00 0.00 52 1010.3
20260504000323 51 214 0.0 0.0 0.00 0.00 0.00 50 1010.3
20260503235829 52 214 0.0 0.0 0.00 0.00 0.00 50 1010.3
20260503235317 52 214 0.0 0.0 0.00 0.00 0.00 46 1010.2
20260503234843 52 214 0.0 0.9 0.00 0.00 0.00 44 1010.1
20260503234325 52 214 0.0 0.9 0.00 0.00 0.00 44 1010.1
20260503233829 53 214 0.0 0.0 0.00 0.00 0.00 44 1010.1
20260503233316 53 214 0.0 4.3 0.00 0.00 0.00 43 1010.1
20260503232820 53 136 0.0 0.9 0.00 0.00 0.00 44 1010.1
20260503232322 53 136 0.0 0.9 0.00 0.00 0.00 44 1010.1
20260503231827 53 112 0.0 0.0 0.00 0.00 0.00 42 1010.0
20260503231336 53 112 0.0 3.5 0.00 0.00 0.00 42 1010.0
20260503230820 53 117 0.0 4.3 0.00 0.00 0.00 42 1010.0
20260503230329 53 142 0.9 4.3 0.00 0.00 0.00 42 1010.0
20260503225834 53 157 0.0 1.7 0.00 0.00 0.00 43 1009.9
20260503225318 54 157 0.0 2.6 0.00 0.00 0.00 42 1009.9
20260503224843 54 171 0.0 4.3 0.00 0.00 0.00 43 1009.9
20260503224326 54 148 0.0 4.3 0.00 0.00 0.00 42 1009.8
20260503223832 54 193 0.0 3.5 0.00 0.00 0.00 43 1009.8
20260503223316 54 216 0.9 4.3 0.00 0.00 0.00 43 1009.7
20260503222825 54 209 0.9 3.5 0.00 0.00 0.00 44 1009.7
20260503222332 54 190 0.0 3.5 0.00 0.00 0.00 45 1009.7
20260503221854 54 211 0.9 3.5 0.00 0.00 0.00 44 1009.6
20260503221337 54 184 0.0 5.2 0.00 0.00 0.00 45 1009.7
20260503220821 53 181 0.0 4.3 0.00 0.00 0.00 44 1009.7
20260503220332 53 203 0.9 4.3 0.00 0.00 0.00 45 1009.8
20260503215834 53 200 0.0 4.3 0.00 0.00 0.00 44 1009.8
20260503215319 53 199 0.9 5.2 0.00 0.00 0.00 44 1009.8
20260503214823 53 131 0.0 3.5 0.00 0.00 0.00 44 1009.8
20260503214332 53 204 0.9 3.5 0.00 0.00 0.00 44 1009.8
20260503213817 53 11 0.0 5.2 0.00 0.00 0.00 43 1009.8
20260503213322 53 5 0.9 5.2 0.00 0.00 0.00 43 1009.8
20260503212824 53 169 0.0 4.3 0.00 0.00 0.00 44 1009.7
20260503212326 54 119 1.7 5.2 0.00 0.00 0.00 43 1009.8
20260503211850 54 204 0.0 5.2 0.00 0.00 0.00 44 1009.8
20260503211333 54 232 1.7 5.2 0.00 0.00 0.00 44 1009.6
20260503210823 54 162 0.0 4.3 0.00 0.00 0.00 44 1009.5
20260503210325 54 246 0.9 6.1 0.00 0.00 0.00 45 1009.5
20260503205829 54 99 0.9 6.1 0.00 0.00 0.00 43 1009.6
20260503205355 54 74 0.0 8.7 0.00 0.00 0.00 42 1009.6
20260503204840 54 211 0.9 8.7 0.00 0.00 0.00 44 1009.5
20260503204328 54 222 0.0 8.7 0.00 0.00 0.00 44 1009.4
20260503203831 54 205 0.9 8.7 0.00 0.00 0.00 44 1009.3
20260503203335 54 318 0.9 7.8 0.00 0.00 0.00 45 1009.4
20260503202817 54 21 0.9 7.8 0.00 0.00 0.00 42 1009.2
20260503202324 54 17 0.9 6.1 0.00 0.00 0.00 42 1009.4
20260503201829 54 201 0.0 5.2 0.00 0.00 0.00 45 1009.2
20260503201334 54 5 0.0 5.2 0.00 0.00 0.00 42 1009.2
20260503200823 54 151 0.0 10.4 0.00 0.00 0.00 43 1009.3
20260503200327 54 360 0.0 10.4 0.00 0.00 0.00 44 1009.2
20260503195832 55 224 0.0 6.1 0.00 0.00 0.00 44 1009.2
20260503195334 55 232 0.0 7.0 0.00 0.00 0.00 42 1009.2